Tracking 22836 objects as of 16-Apr-2021
HD Live streaming from Space Station
objects crossing your sky now

STARLINK-80

Track STARLINK-80 now!
10-day predictions
STARLINK-80 is classified as:


NORAD ID: 44282
Int'l Code: 2019-029AZ
Perigee: 478.6 km
Apogee: 485.2 km
Inclination: 53.0 °
Period: 94.1 minutes
Semi major axis: 6852 km
RCS: Unknown
Launch date: May 24, 2019
Source: United States (US)
Launch site: AIR FORCE EASTERN TEST RANGE (AFETR)
aabbcc
Your satellite tracking list
Your tracking list is empty




NASA's NSSDC Master Catalog

Two Line Element Set (TLE):
1 44282U 19029AZ  21105.60433519  .00014137  00000-0  48612-3 0  9991
2 44282  53.0212 211.4643 0004829  87.3066 272.8486 15.30352991105785
Source of the keplerian elements: AFSPC